TimeEDT,TemperatureF,Dew PointF,Humidity,Sea Level PressureIn,VisibilityMPH,Wind Direction,Wind SpeedMPH,Gust SpeedMPH,PrecipitationIn,Events,Conditions,WindDirDegrees,DateUTC
12:54 AM,79.0,70.0,74,29.99,10.0,SW,5.8,-,N/A,,Clear,220,2013-07-29 04:54:00
1:54 AM,75.9,68.0,76,30.00,6.0,SSW,6.9,21.9,0.04,Rain,Light Rain,200,2013-07-29 05:54:00
2:54 AM,75.9,69.1,79,29.98,10.0,SW,8.1,-,0.00,,Mostly Cloudy,220,2013-07-29 06:54:00
3:54 AM,75.9,69.1,79,30.00,10.0,SW,6.9,-,N/A,,Partly Cloudy,230,2013-07-29 07:54:00
4:54 AM,75.0,68.0,79,30.00,10.0,Calm,Calm,-,0.00,Rain,Light Rain,0,2013-07-29 08:54:00
5:54 AM,75.0,68.0,79,30.02,10.0,WSW,3.5,-,0.00,,Mostly Cloudy,250,2013-07-29 09:54:00
6:54 AM,75.0,69.1,82,30.03,6.0,Calm,Calm,-,N/A,,Haze,0,2013-07-29 10:54:00
7:54 AM,78.1,69.1,74,30.05,10.0,NW,3.5,-,N/A,,Mostly Cloudy,320,2013-07-29 11:54:00
8:54 AM,78.1,69.1,74,30.06,10.0,NNE,5.8,-,N/A,,Partly Cloudy,30,2013-07-29 12:54:00
9:54 AM,80.1,66.9,64,30.07,10.0,North,9.2,-,N/A,,Mostly Cloudy,360,2013-07-29 13:54:00
10:54 AM,80.1,64.0,58,30.09,10.0,North,6.9,-,N/A,,Overcast,10,2013-07-29 14:54:00
11:54 AM,81.0,62.1,52,30.10,10.0,NNW,6.9,-,N/A,,Scattered Clouds,340,2013-07-29 15:54:00
12:54 PM,82.9,61.0,47,30.10,10.0,NNE,6.9,-,N/A,,Partly Cloudy,30,2013-07-29 16:54:00
1:54 PM,84.0,61.0,46,30.09,10.0,North,5.8,-,N/A,,Clear,360,2013-07-29 17:54:00
2:54 PM,84.9,61.0,44,30.08,10.0,North,4.6,-,N/A,,Clear,360,2013-07-29 18:54:00
3:33 PM,84.2,62.6,48,30.07,10.0,East,8.1,-,N/A,,Partly Cloudy,90,2013-07-29 19:33:00
3:54 PM,84.0,63.0,49,30.07,10.0,East,9.2,-,N/A,,Clear,100,2013-07-29 19:54:00
4:54 PM,84.0,62.1,47,30.09,10.0,Calm,Calm,-,N/A,,Clear,0,2013-07-29 20:54:00
5:54 PM,84.0,63.0,49,30.09,10.0,East,3.5,-,N/A,,Clear,100,2013-07-29 21:54:00
6:54 PM,84.0,64.0,51,30.09,10.0,Calm,Calm,-,N/A,,Clear,0,2013-07-29 22:54:00
7:54 PM,81.0,64.9,58,30.11,10.0,East,3.5,-,N/A,,Mostly Cloudy,80,2013-07-29 23:54:00
8:54 PM,75.0,66.0,73,30.13,10.0,North,3.5,-,N/A,,Clear,350,2013-07-30 00:54:00
9:54 PM,73.0,64.9,76,30.14,10.0,North,3.5,-,N/A,,Clear,10,2013-07-30 01:54:00
10:54 PM,71.1,64.9,81,30.15,10.0,Calm,Calm,-,N/A,,Clear,0,2013-07-30 02:54:00
11:54 PM,71.1,64.0,78,30.16,10.0,Calm,Calm,-,N/A,,Clear,0,2013-07-30 03:54:00